Augusta Bush, GA

8:33 AM EST on December 11, 2017 (GMT -0500)
Augusta Regional At Bush

Weather History for KAGS - September, 2013

Change the Weather History Date:

Sunday, September 1, 2013

  Actual Average Record
Temperature  
Mean Temperature 82 °F 79 °F  
Max Temperature 93 °F 90 °F 100 °F (1957)
Min Temperature 70 °F 67 °F 51 °F (1999)
Degree Days  
Heating Degree Days 0 0  
Month to date heating degree days 0 0  
Since 1 July heating degree days 0 0  
Cooling Degree Days 17 14  
Month to date cooling degree days 17 14  
Year to date cooling degree days 1492 1702  
Growing Degree Days 32 (Base 50)    
Moisture  
Dew Point 72 °F    
Average Humidity 76    
Maximum Humidity 100    
Minimum Humidity 52    
Precipitation  
Precipitation 0.14 in 0.11 in 2.29 in (1893)
Month to date precipitation 0.14 0.11  
Year to date precipitation 45.46 30.98  
Sea Level Pressure  
Sea Level Pressure 29.90 in    
Wind  
Wind Speed 4 mph (SSW)    
Max Wind Speed 18 mph    
Max Gust Speed 23 mph    
Visibility 6 miles    
Events Fog , Rain , Thunderstorm    
T = Trace of Precipitation, MM = Missing Value Source: NWS Daily Summary

Daily Weather History Graph

Daily Weather History Graph

Search for Another Location

Airport or City:

Trip Planner

Search our weather history database for the weather conditions in past years. The results will help you decide how hot, cold, wet, or windy it might be!

Date:

Astronomy

Sep. 01, 2013 Rise Set
Actual Time 7:02 AM EDT 7:52 PM EDT
Civil Twilight 6:36 AM EDT 8:18 PM EDT
Nautical Twilight 6:06 AM EDT 8:47 PM EDT
Astronomical Twilight 5:36 AM EDT 9:18 PM EDT
Moon 3:29 AM EDT (9/1) 5:23 PM EDT (9/1)
Length of Visible Light 13h 41m
Length of Day
12h 50m
Waning Crescent, 14% of the Moon is Illuminated
Sep 1
Waning Crescent
Sep 5
New
Sep 12
First Quarter
Sep 19
Full
Sep 26
Last Quarter

Hourly Weather History & Observations

Time (EDT) Temp. Heat Index Dew Point Humidity Pressure Visibility Wind Dir Wind Speed Gust Speed Precip Events Conditions
12:53 AM 75.0 °F - 73.0 °F 94% 29.91 in 8.0 mi Calm Calm - N/A   Clear
1:53 AM 73.0 °F - 72.0 °F 96% 29.92 in 5.0 mi SSE 3.5 mph - N/A   Clear
2:53 AM 73.0 °F - 72.0 °F 96% 29.91 in 4.0 mi Calm Calm - 0.01 in   Partly Cloudy
3:03 AM 71.6 °F - 71.6 °F 100% 29.91 in 1.8 mi Calm Calm - 0.00 in Rain Light Rain
3:21 AM 71.6 °F - 71.6 °F 100% 29.91 in 2.0 mi SSE 3.5 mph - 0.00 in   Clear
3:35 AM 71.6 °F - 71.6 °F 100% 29.91 in 5.0 mi Calm Calm - 0.00 in   Partly Cloudy
3:53 AM 73.0 °F - 72.0 °F 96% 29.90 in 6.0 mi Calm Calm - 0.00 in   Partly Cloudy
4:15 AM 71.6 °F - 71.6 °F 100% 29.89 in 2.0 mi SE 3.5 mph - N/A   Clear
4:27 AM 71.6 °F - 71.6 °F 100% 29.89 in 4.0 mi Calm Calm - N/A   Clear
4:53 AM 72.0 °F - 71.1 °F 97% 29.90 in 1.8 mi Calm Calm - N/A   Clear
5:28 AM 71.6 °F - 71.6 °F 100% 29.91 in 3.0 mi Calm Calm - N/A   Clear
5:42 AM 71.6 °F - 69.8 °F 94% 29.91 in 1.8 mi Calm Calm - N/A   Clear
5:53 AM 71.1 °F - 70.0 °F 96% 29.91 in 0.5 mi Calm Calm - 0.01 in Fog Fog
5:59 AM 71.6 °F - 71.6 °F 100% 29.91 in 2.0 mi Calm Calm - N/A   Clear
6:07 AM 69.8 °F - 69.8 °F 100% 29.92 in 0.8 mi Calm Calm - N/A   Mist
6:17 AM 69.8 °F - 69.8 °F 100% 29.92 in 0.2 mi SSE 3.5 mph - N/A Fog Fog
6:28 AM 69.8 °F - 69.8 °F 100% 29.92 in 1.0 mi SSE 4.6 mph - N/A   Mist
6:36 AM 71.6 °F - 69.8 °F 94% 29.92 in 1.5 mi Calm Calm - N/A   Scattered Clouds
6:53 AM 72.0 °F - 71.1 °F 97% 29.92 in 2.0 mi Calm Calm - N/A   Clear
7:01 AM 71.6 °F - 71.6 °F 100% 29.92 in 2.0 mi Calm Calm - N/A   Clear
7:53 AM 72.0 °F - 72.0 °F 100% 29.92 in 2.0 mi Calm Calm - N/A   Clear
8:22 AM 73.4 °F - 73.4 °F 100% 29.93 in 3.0 mi Calm Calm - N/A   Clear
8:53 AM 77.0 °F - 75.0 °F 94% 29.93 in 6.0 mi South 3.5 mph - N/A   Clear
9:53 AM 82.0 °F 88.6 °F 75.0 °F 79% 29.94 in 7.0 mi Calm Calm - N/A   Clear
10:53 AM 86.0 °F 95.1 °F 75.0 °F 70% 29.94 in 10.0 mi Variable 4.6 mph - N/A   Clear
11:53 AM 89.1 °F 98.0 °F 73.9 °F 61% 29.93 in 10.0 mi SW 8.1 mph - N/A   Scattered Clouds
12:53 PM 89.1 °F 97.0 °F 73.0 °F 59% 29.91 in 10.0 mi West 6.9 mph - N/A   Partly Cloudy
1:53 PM 89.1 °F 96.0 °F 72.0 °F 57% 29.89 in 10.0 mi SW 8.1 mph - N/A   Mostly Cloudy
2:53 PM 91.0 °F 98.2 °F 72.0 °F 53% 29.87 in 10.0 mi SSW 6.9 mph - N/A   Scattered Clouds
3:53 PM 91.9 °F 99.5 °F 72.0 °F 52% 29.86 in 10.0 mi SSW 10.4 mph - N/A   Partly Cloudy
4:53 PM 91.9 °F 99.5 °F 72.0 °F 52% 29.83 in 10.0 mi WSW 9.2 mph 16.1 mph N/A   Partly Cloudy
5:53 PM 90.0 °F 96.9 °F 72.0 °F 55% 29.83 in 10.0 mi SSW 9.2 mph - N/A   Clear
6:53 PM 88.0 °F 94.7 °F 72.0 °F 59% 29.84 in 10.0 mi SW 8.1 mph - N/A   Clear
7:50 PM 82.4 °F 88.2 °F 73.4 °F 74% 29.85 in 10.0 mi SW 4.6 mph - N/A Thunderstorm Clear
7:53 PM 82.9 °F 88.8 °F 73.0 °F 72% 29.85 in 10.0 mi SW 4.6 mph - N/A Thunderstorm Clear
8:53 PM 77.0 °F - 73.9 °F 90% 29.89 in 8.0 mi West 9.2 mph - 0.10 in Rain , Thunderstorm Rain
8:57 PM 77.0 °F - 73.4 °F 89% 29.90 in 8.0 mi West 8.1 mph - 0.01 in Rain , Thunderstorm Light Rain
9:23 PM 75.2 °F - 73.4 °F 94% 29.90 in 5.0 mi West 11.5 mph 19.6 mph 0.04 in Rain Rain
9:53 PM 75.9 °F - 73.0 °F 91% 29.88 in 10.0 mi Calm Calm - 0.04 in Rain Light Rain
10:53 PM 75.0 °F - 73.9 °F 96% 29.90 in 7.0 mi Calm Calm - 0.00 in Rain Light Rain
11:53 PM 73.9 °F - 73.0 °F 97% 29.90 in 6.0 mi ESE 4.6 mph - 0.00 in   Mostly Cloudy